Back to catalog

SL-12 R/B

AUX MOTOR

AliveUNKNOWN
NORAD 4790·ROCKET BODY·🇷🇺 Russia

Launched Dec 2, 1970 from Baikonur Cosmodrome

Loading…

Next Passes (next 24 hours)

TLE

FreshSource: Space-Track

Epoch: Sep 14, 2026, 05:01 UTC

1 04790U 70103C   26257.20927386  .00000011  00000-0  23680-2 0  9993
2 04790  51.5894 196.9052 1784860 193.2830 161.4170  9.05046557844159

Track SL-12 R/B in real time with AllMySat

Download on the App Store